sat.trackr.live / text

‹ back to catalog

ONEWEB-0047

NORAD 45152 · 2020-008X

PAYLOAD ACTIVE UNKNOWN

§ Identity

Operator
Country
UK
Launch date
2020-02-06
Launch site
TYMSC
Launch vehicle
Mass (kg)
RCS (m²)

Purposes: comms

External: N2YO · Heavens-Above · Gunter

§ Orbital elements

Epoch: 2026-09-20T01:28:16.447872Z

Period
109.89 min
Inclination
87.8917°
Eccentricity
0.0001637
Mean motion
13.10377249 rev/d
Perigee alt
1,220.5 km
Apogee alt
1,222.9 km
Semi-major
7,599.8 km
B*
1.4457e-4
RAAN
17.3856°
Arg perigee
93.8480°
Mean anomaly
266.2835°
Rev number
32,062

§ Raw data

ONEWEB-00471 45152U 20008X   26263.06130148  .00000063  00000+0  14457-3 0  99912 45152  87.8917  17.3856 0001637  93.8480 266.2835 13.10377249320620

JSON: /api/v1/satellites/45152 · /tle

For live sub-satellite position, see the globe view (requires WebGL).

§ Visibility from observer

Set your observer location to see the next 7 days of passes ≥ 10°. The values pass through the URL so the page stays shareable.

No JS? Fill the form by hand. The geolocation button needs JavaScript.